Wind_Speed
36 37 38 39 40 40 41 42 42 43 44 45 44 43 43 43 43 43 44 45 45 45 46 47 48 49 50 50 51 53 53 54 56 58 59 62 63 63 62 62 61 60
38 38 39 40 41 42 43 43 44 44 45 45 46 45 45 44 44 44 44 45 46 46 47 47 48 49 50 51 51 52 53 54 54 56 57 59 61 63 63 64 63 62
39 40 41 42 43 43 44 44 45 45 45 45 46 46 46 46 45 45 45 45 46 47 47 47 48 49 50 51 52 52 52 53 54 54 56 57 59 61 62 64 65 64
41 42 43 44 45 45 45 45 45 45 45 45 45 46 46 47 46 46 46 46 46 47 47 48 48 49 50 51 52 53 53 53 53 53 55 57 57 58 60 62 64 64
43 43 44 45 45 46 46 46 46 46 45 45 45 46 46 47 47 46 46 46 46 46 47 47 48 49 49 50 51 53 53 53 53 53 54 56 56 57 58 60 62 63
44 45 45 46 46 46 47 47 47 46 46 45 45 46 46 47 47 47 46 46 46 46 46 47 48 48 49 49 50 51 52 52 53 54 55 55 56 56 57 58 60 61
45 45 45 46 46 47 48 48 47 47 46 46 45 46 47 48 48 49 48 47 46 46 47 47 47 48 48 49 49 49 51 51 51 52 54 55 55 56 56 57 59 60
45 45 45 46 47 47 48 48 47 47 47 46 46 46 47 48 49 50 50 49 48 47 47 48 48 48 48 49 49 49 49 50 50 50 52 53 54 54 55 55 57 59
45 45 46 46 47 48 48 48 48 48 47 47 47 47 48 48 49 50 51 51 50 49 49 49 49 49 49 49 49 49 49 49 49 50 50 51 52 53 54 55 56 57
44 45 46 47 47 48 48 48 48 49 49 49 48 48 48 49 49 50 51 52 51 51 51 51 50 50 50 50 50 50 50 50 50 50 50 51 51 52 53 54 55 56
44 44 45 46 47 48 48 48 49 49 50 50 50 50 50 50 51 51 52 53 53 53 53 53 53 52 52 52 52 52 52 51 51 51 51 51 51 52 52 53 55 56
43 44 45 45 46 47 47 48 48 49 50 50 50 51 51 51 52 52 53 53 54 54 54 54 54 54 54 54 54 55 54 54 53 53 53 52 52 52 53 53 55 56
43 44 44 44 45 46 46 47 47 48 49 49 50 50 51 52 52 52 53 53 54 55 55 56 55 55 55 55 55 56 56 56 56 55 54 54 53 53 54 54 55 56
43 44 44 44 45 45 45 46 47 47 48 48 49 50 50 51 52 52 53 53 54 54 55 56 56 56 56 56 56 56 57 57 57 57 57 56 55 54 54 55 55 56
43 44 44 45 45 45 46 47 47 48 48 48 49 50 50 51 51 52 53 53 54 55 55 56 56 56 56 56 56 56 56 57 57 57 58 58 57 56 56 56 56 57
44 45 45 45 45 46 47 47 48 48 49 49 50 50 51 51 51 52 52 53 54 55 56 56 57 56 56 56 57 57 57 58 58 58 58 59 59 58 57 57 57 58
44 44 45 45 45 46 47 47 47 48 48 49 50 50 51 52 52 52 53 53 54 54 55 56 56 57 57 57 58 58 59 59 59 59 59 60 60 59 59 58 58 59
43 43 44 45 46 46 47 47 48 48 48 49 49 50 51 52 52 53 53 54 55 55 55 56 56 56 57 57 58 59 60 61 61 61 61 61 61 60 60 60 60 60
43 44 45 46 47 47 48 48 48 48 48 49 50 50 51 52 52 53 54 55 55 56 56 56 56 56 57 57 58 59 61 62 63 63 63 62 62 62 62 61 61 61
43 45 46 46 46 47 47 47 48 48 49 49 50 51 52 52 53 53 54 55 55 56 57 57 57 57 58 58 58 59 61 63 64 64 64 63 63 63 63 63 62 62
43 45 45 46 46 46 47 47 48 49 49 50 50 51 52 52 53 53 54 54 55 55 56 56 57 58 59 59 60 60 61 63 64 65 66 65 64 63 63 63 63 63
44 45 46 46 46 47 47 48 48 48 49 50 50 50 51 51 52 53 53 54 54 55 56 56 56 58 59 60 60 61 62 63 65 66 66 66 65 64 63 63 63 63
45 47 48 48 47 48 48 48 48 48 48 49 49 49 49 50 51 52 53 53 54 55 55 56 56 57 59 60 61 62 62 63 64 66 66 66 66 64 62 62 62 63
47 48 48 48 47 47 48 48 48 47 47 47 47 47 49 50 51 52 52 53 54 55 56 56 56 57 58 59 60 62 62 63 64 66 65 64 64 63 61 60 61 61
47 47 46 46 46 46 46 46 45 45 45 46 47 48 50 51 52 52 52 52 53 54 54 54 54 53 54 55 56 57 59 61 63 64 63 62 62 61 59 58 59 60
46 45 45 45 45 45 44 43 43 43 44 46 48 49 50 50 51 51 51 50 50 50 50 50 50 49 48 49 50 51 54 58 61 61 60 59 59 58 56 55 56 57
Wind_Direction
279 281 282 283 283 283 283 282 281 281 280 280 278 276 273 270 267 264 262 260 258 256 255 253 252 252 252 251 250 249 248 246 245 245 246 246 247 247 246 246 247 246
279 281 282 282 282 282 281 281 280 279 279 278 278 276 275 272 269 267 264 261 259 257 255 253 252 250 250 251 250 249 249 248 247 246 246 245 246 246 247 246 247 247
280 280 281 281 281 281 280 279 279 278 277 276 276 275 274 273 271 269 266 264 262 260 257 255 253 250 249 248 249 249 248 248 247 247 246 246 245 245 246 247 246 246
281 281 281 281 281 281 280 279 278 277 276 275 274 273 272 272 271 269 267 266 264 262 260 257 255 252 250 247 247 247 248 247 246 246 246 246 245 244 244 246 246 245
281 281 281 281 281 280 279 278 277 276 275 274 272 272 271 271 270 269 268 266 265 263 261 259 257 255 252 249 247 246 246 246 246 246 246 246 246 244 243 244 245 245
280 280 280 280 280 279 278 277 276 275 273 272 271 271 271 270 270 269 268 266 265 264 262 260 259 257 255 252 249 247 245 245 245 246 246 246 246 246 244 242 244 245
279 279 279 279 278 277 277 276 275 274 273 272 271 270 270 270 270 269 268 267 265 264 262 261 259 257 256 254 251 249 247 245 245 246 247 247 247 247 246 243 242 243
277 277 276 276 276 275 275 275 274 273 273 272 270 270 269 269 269 269 269 268 266 265 263 262 260 258 256 255 253 251 249 248 246 245 246 246 247 247 247 246 244 243
275 275 275 275 274 274 274 274 274 273 273 271 270 269 268 268 268 268 268 268 266 265 264 262 261 259 257 256 254 252 251 249 248 247 246 245 246 246 246 247 246 244
274 274 274 274 274 275 275 274 275 274 273 272 271 270 269 268 268 268 268 267 266 265 264 262 261 260 259 258 256 254 252 251 250 249 248 246 246 245 245 245 246 246
274 274 274 274 274 275 275 275 275 275 274 274 273 271 270 269 268 267 267 267 266 265 264 262 261 260 260 259 258 257 255 253 252 251 250 248 247 246 245 245 245 246
274 274 273 273 274 274 274 275 275 275 274 274 273 272 271 270 268 267 266 266 266 265 264 262 261 261 260 259 259 258 257 255 254 252 251 250 249 247 246 245 245 245
274 274 274 274 274 274 275 275 275 274 274 274 273 272 271 270 268 267 266 265 264 265 264 263 262 261 260 260 259 258 257 257 256 255 253 252 251 249 247 246 246 245
276 275 275 276 276 276 276 276 276 275 275 274 273 272 271 270 268 267 266 265 264 264 263 263 262 261 260 260 259 258 257 257 256 255 255 254 253 251 249 247 245 246
277 277 277 278 278 278 278 277 277 277 276 276 275 274 272 271 270 268 267 265 265 264 263 263 263 262 262 261 260 259 258 257 256 255 255 254 254 252 251 249 247 245
279 279 279 279 279 279 279 278 279 278 278 277 277 276 274 273 271 270 269 268 266 265 265 264 264 263 263 263 262 260 259 257 256 255 254 254 253 253 252 250 248 246
280 280 280 280 280 280 280 280 280 280 279 279 278 277 276 274 273 272 271 270 269 267 266 265 265 265 264 264 263 262 260 258 256 255 254 254 253 253 251 250 248 246
282 282 281 281 282 282 282 282 282 282 281 280 279 278 277 276 275 274 273 272 270 269 268 266 265 265 265 264 263 263 261 260 258 256 254 253 253 252 251 250 248 246
282 282 282 282 283 283 283 283 283 283 282 281 280 279 278 277 276 275 275 273 272 270 269 267 266 265 264 264 263 263 262 261 260 258 256 254 252 252 251 249 247 245
282 282 283 283 283 284 285 285 284 283 283 282 280 279 278 277 276 276 275 275 274 272 270 269 267 266 265 263 263 262 262 261 261 259 258 255 253 251 251 249 247 245
282 282 283 283 285 285 286 285 284 283 282 282 281 280 279 278 277 276 275 274 273 272 271 269 268 266 265 263 262 261 260 260 259 259 258 256 254 251 249 248 246 244
282 283 284 285 286 286 286 286 285 285 283 282 282 281 280 279 277 276 275 274 273 273 272 270 268 267 265 263 262 260 259 258 258 257 257 256 254 251 248 246 245 243
283 284 285 286 286 286 286 286 286 285 284 283 283 282 281 280 279 278 277 276 275 274 273 271 269 267 265 263 262 260 258 257 256 255 255 254 253 251 248 245 243 241
285 286 286 286 286 286 285 285 285 284 284 283 283 283 282 282 280 279 278 277 276 274 273 272 269 268 266 264 262 260 258 256 254 253 253 252 251 250 247 244 242 238
285 286 286 286 287 286 286 285 284 283 283 283 284 284 283 282 281 279 278 277 277 276 275 274 272 270 268 266 263 261 258 255 253 252 251 250 249 249 247 244 240 236
285 285 286 287 287 287 286 285 284 284 284 284 285 285 283 282 281 280 279 279 278 277 277 276 274 272 270 267 265 263 260 256 252 251 250 249 248 247 245 242 238 233
Height
5722 5722 5722 5722 5722 5722 5722 5723 5723 5723 5723 5723 5724 5726 5727 5728 5729 5730 5731 5732 5733 5733 5734 5735 5736 5737 5737 5739 5740 5741 5743 5745 5746 5748 5750 5751 5753 5756 5758 5760 5762 5764
5718 5718 5717 5717 5717 5717 5717 5717 5717 5717 5717 5717 5718 5719 5720 5721 5722 5723 5724 5725 5726 5727 5728 5729 5730 5731 5732 5732 5733 5735 5736 5738 5740 5741 5743 5745 5746 5748 5751 5753 5755 5757
5713 5713 5712 5712 5711 5711 5711 5711 5711 5711 5711 5712 5712 5713 5713 5714 5715 5716 5717 5718 5719 5720 5721 5722 5723 5724 5725 5726 5727 5728 5729 5731 5733 5734 5736 5738 5739 5742 5744 5746 5748 5750
5707 5707 5707 5706 5706 5706 5705 5705 5705 5705 5706 5706 5707 5707 5707 5708 5708 5709 5710 5711 5712 5713 5713 5715 5716 5717 5718 5720 5721 5722 5723 5724 5726 5727 5729 5730 5732 5735 5737 5739 5741 5744
5702 5702 5701 5701 5700 5700 5699 5699 5699 5700 5700 5700 5701 5701 5702 5702 5702 5702 5703 5704 5705 5706 5706 5707 5708 5709 5711 5712 5714 5715 5716 5717 5719 5720 5722 5723 5725 5727 5730 5732 5733 5736
5696 5695 5695 5695 5695 5694 5693 5693 5693 5694 5694 5695 5695 5695 5696 5696 5696 5696 5697 5698 5698 5699 5700 5700 5701 5702 5703 5704 5706 5708 5709 5711 5712 5713 5714 5716 5718 5720 5722 5724 5726 5729
5690 5689 5689 5689 5689 5688 5687 5687 5688 5688 5688 5689 5690 5690 5690 5690 5690 5689 5690 5691 5692 5693 5693 5694 5694 5695 5696 5697 5698 5700 5702 5703 5705 5706 5707 5709 5711 5713 5715 5717 5719 5721
5684 5683 5683 5683 5682 5682 5682 5682 5682 5682 5682 5683 5683 5684 5683 5684 5684 5683 5684 5685 5686 5686 5686 5687 5688 5688 5689 5690 5691 5692 5694 5695 5697 5699 5700 5702 5704 5706 5708 5709 5712 5714
5678 5677 5677 5677 5676 5676 5676 5676 5676 5676 5676 5676 5677 5677 5677 5678 5677 5677 5677 5678 5679 5679 5680 5680 5681 5682 5682 5683 5684 5685 5686 5688 5689 5691 5693 5694 5697 5699 5701 5702 5704 5706
5671 5671 5671 5670 5670 5670 5670 5669 5669 5669 5669 5669 5670 5670 5671 5671 5671 5671 5671 5671 5672 5672 5673 5673 5674 5675 5675 5676 5677 5678 5679 5681 5682 5683 5685 5687 5689 5692 5694 5695 5697 5698
5665 5665 5665 5664 5664 5663 5663 5663 5663 5662 5662 5662 5662 5663 5663 5664 5664 5664 5664 5664 5664 5665 5665 5666 5666 5667 5668 5669 5670 5671 5672 5673 5675 5676 5678 5680 5682 5684 5686 5688 5690 5691
5659 5659 5658 5658 5658 5657 5657 5657 5656 5655 5655 5655 5655 5655 5655 5656 5656 5656 5656 5656 5657 5657 5658 5658 5659 5659 5660 5661 5662 5662 5664 5665 5667 5668 5670 5672 5674 5676 5678 5680 5682 5684
5653 5653 5652 5652 5652 5651 5651 5650 5649 5649 5648 5648 5647 5647 5647 5647 5648 5648 5648 5649 5649 5649 5649 5650 5651 5652 5652 5653 5654 5654 5655 5657 5658 5660 5662 5663 5666 5668 5670 5672 5675 5676
5647 5647 5646 5646 5645 5645 5644 5643 5643 5642 5641 5641 5640 5640 5639 5639 5639 5640 5640 5641 5641 5641 5641 5642 5642 5643 5644 5645 5645 5646 5647 5648 5650 5652 5653 5655 5657 5659 5661 5664 5666 5668
5641 5640 5640 5640 5639 5638 5638 5636 5636 5635 5634 5634 5633 5632 5632 5631 5631 5631 5632 5632 5633 5633 5633 5634 5634 5635 5636 5636 5636 5637 5638 5639 5641 5643 5645 5646 5648 5651 5653 5656 5658 5660
5635 5634 5634 5633 5632 5632 5631 5630 5629 5628 5627 5627 5626 5625 5624 5624 5623 5623 5623 5624 5624 5625 5625 5625 5626 5627 5628 5628 5628 5628 5629 5630 5632 5634 5636 5637 5639 5642 5645 5647 5650 5652
5629 5628 5627 5626 5626 5625 5624 5623 5622 5621 5620 5619 5618 5618 5616 5616 5615 5615 5615 5615 5616 5616 5617 5617 5618 5619 5619 5619 5619 5619 5619 5620 5622 5624 5626 5628 5630 5633 5636 5638 5641 5643
5623 5622 5621 5620 5619 5618 5617 5616 5615 5614 5613 5612 5611 5610 5609 5608 5608 5607 5607 5607 5607 5608 5608 5608 5609 5610 5610 5610 5610 5609 5609 5610 5611 5614 5616 5619 5621 5624 5626 5629 5632 5635
5617 5615 5614 5613 5612 5611 5610 5609 5608 5607 5606 5604 5603 5602 5601 5601 5600 5599 5598 5598 5597 5598 5598 5599 5600 5600 5601 5601 5601 5600 5599 5600 5601 5603 5605 5609 5612 5614 5617 5620 5623 5626
5611 5609 5608 5607 5606 5605 5603 5602 5601 5599 5598 5597 5595 5594 5594 5593 5592 5591 5590 5589 5588 5588 5589 5590 5590 5590 5591 5591 5591 5591 5590 5589 5590 5592 5594 5598 5601 5604 5607 5610 5614 5617
5605 5603 5602 5601 5600 5599 5597 5596 5594 5593 5591 5589 5588 5587 5586 5585 5584 5583 5582 5581 5580 5579 5579 5580 5580 5580 5580 5581 5581 5581 5580 5579 5580 5581 5583 5586 5590 5594 5597 5600 5604 5607
5599 5597 5596 5595 5594 5593 5591 5589 5588 5586 5584 5582 5581 5580 5578 5577 5576 5574 5573 5572 5572 5570 5570 5571 5571 5570 5570 5570 5570 5570 5569 5569 5570 5571 5572 5575 5579 5583 5586 5590 5594 5598
5593 5592 5590 5589 5588 5586 5584 5582 5581 5579 5577 5575 5574 5572 5571 5569 5567 5566 5565 5564 5563 5562 5561 5561 5561 5560 5559 5559 5559 5558 5558 5559 5560 5560 5562 5564 5568 5571 5575 5579 5583 5588
5587 5585 5584 5582 5581 5579 5577 5575 5574 5572 5570 5568 5567 5565 5563 5561 5559 5558 5557 5555 5554 5553 5551 5550 5551 5550 5549 5548 5548 5547 5547 5548 5549 5549 5551 5555 5557 5560 5564 5569 5573 5578
5581 5579 5577 5575 5574 5572 5570 5569 5567 5565 5563 5562 5560 5558 5556 5553 5551 5550 5549 5547 5545 5544 5542 5541 5541 5540 5539 5538 5537 5536 5536 5537 5537 5538 5541 5545 5547 5550 5555 5559 5564 5569
5575 5573 5571 5569 5567 5565 5564 5562 5560 5559 5557 5555 5553 5550 5548 5546 5543 5542 5541 5540 5538 5536 5534 5533 5532 5531 5530 5529 5528 5527 5527 5526 5527 5529 5532 5535 5538 5541 5546 5551 5555 5560